Find Starlink 32342

NORAD ID: 61217 Int'l Des: 2024-171 Owner: SPXS Country: US Constellation: starlink operational
LEOCIRCULAR

現在のビュー

3D地球を読み込み中...

About Starlink 32342

Starlink 32342 (NORAD 61217) is a starlink constellation satellite (v2 mini) launched Sep 20, 2024 by SPXS of US. It operates in LEO, CIRCULAR orbit with a mass of 730.00 kg.

次回通過

Passes for default location (London). Set your location on the main map for personalized predictions.

高度履歴

Loading altitude history...

軌道要素

1 61217U 24171T 26263.91826279 -.00001892 00000-0 -49239-4 0 9998
2 61217 53.1599 134.5802 0001676 83.3788 276.7404 15.31689162113187
Epoch: Sep 20, 2026 • Age: 9 hours

現在のステータス

高度 472.8 km
遠地点 / 近地点 N/A
速度 7.63 km/s
衛星直下点 -6.29°S, 16.86°E
打ち上げ日 Sep 20, 2024
運用期間 1.9 years
タイプ internet

技術仕様

分類 Payload
質量 730.00 kg
乾燥質量 700.00 kg
長さ 0.30 m
スパン 29.00 m
形状 ? Box + pan
製造者 SPXS
バスタイプ Starlink V2M
フェーズステータス In Orbit
所有者/国 SPXS/US

Most Searched